This is the latest recevied weather packets stored in our database for station/object DB2AG-10. If no packets are shown the sender has not sent any weather packets the latest 10 day(s).
| Time | Temp. | Humidity | Pressure | Rain* | Wind** | Luminosity | Snow |
|---|---|---|---|---|---|---|---|
| 1777203961 | 18.33° C | 43% | 1026.2 hPa | - | - | - | - |
| 1777203060 | 18.33° C | 43% | 1026.2 hPa | - | - | - | - |
| 1777202160 | 18.33° C | 42% | 1026.2 hPa | - | - | - | - |
| 1777201260 | 18.33° C | 43% | 1026.3 hPa | - | - | - | - |
| 1777200360 | 17.78° C | 43% | 1026.4 hPa | - | - | - | - |
| 1777199460 | 17.78° C | 43% | 1026.5 hPa | - | - | - | - |
| 1777198559 | 17.22° C | 44% | 1026.4 hPa | - | - | - | - |
| 1777197659 | 17.22° C | 44% | 1026.4 hPa | - | - | - | - |
| 1777196759 | 16.67° C | 44% | 1026.4 hPa | - | - | - | - |
| 1777195859 | 16.67° C | 44% | 1026.5 hPa | - | - | - | - |
| 1777194959 | 16.67° C | 44% | 1026.4 hPa | - | - | - | - |
| 1777194059 | 16.11° C | 44% | 1026.4 hPa | - | - | - | - |
| 1777193159 | 15.56° C | 45% | 1026.3 hPa | - | - | - | - |
| 1777192259 | 15° C | 45% | 1026.4 hPa | - | - | - | - |
| 1777191358 | 15° C | 44% | 1026.4 hPa | - | - | - | - |
| 1777190459 | 15° C | 44% | 1026.4 hPa | - | - | - | - |
| 1777189558 | 14.44° C | 43% | 1026.2 hPa | - | - | - | - |
| 1777188658 | 14.44° C | 44% | 1026.1 hPa | - | - | - | - |
| 1777187758 | 13.89° C | 44% | 1026 hPa | - | - | - | - |
| 1777186858 | 13.89° C | 44% | 1025.9 hPa | - | - | - | - |
| 1777185958 | 13.33° C | 44% | 1025.7 hPa | - | - | - | - |
| 1777185058 | 13.33° C | 44% | 1025.6 hPa | - | - | - | - |
| 1777184158 | 13.33° C | 45% | 1025.4 hPa | - | - | - | - |
| 1777183258 | 13.33° C | 44% | 1025.3 hPa | - | - | - | - |
| 1777182357 | 12.78° C | 44% | 1025.2 hPa | - | - | - | - |
* Rain since midnight (hover to see other rain measurements)
** Current wind speed in m/s (hover to see current wind gust speed)